KINEIS-5B

Last updated on Wed Mar 11 2026 00:02:47 GMT+0000 (Coordinated Universal Time)

1 62085U 24219E 26069.55847584 .00002155 00000+0 30524-3 0 9997 2 62085 97.9947 234.0356 0001554 188.7244 171.3940 14.78077299 69431
UTC large
Height (km)
Speed (km/s)
/
Latitude / Longitude
Inclination (degrees)
Orbital Period (minutes)
Azimuth
Elevation
Range (km)
Doppler Factor

Next 0 passes for location: London (51.5072 / 0.1276)

Sorry there are no passes over London.